[[{"header":{"parameterUnit":"m.s-1","parameterCategory":1,"la1":30.2991,"la2":30.254,"lo1":-89.0895,"lo2":-89.0444,"dy":0.0017,"dx":0.0017,"nx":28,"ny":28,"refTime":"2024-04-16T09:00:00:Z","depth":0,"parameterNumber":2,"parameterNumberName":"U-component_of_WINDS"},"data":[0,0,0,0,0,0,0,0,0,0,0,0,0,0,0,0,0,0,0,0,0,0,0,0,0,0,0,0,0,0,0,0,0,0,0,0,0,0,0,0,0,0,0,0,0,0,0,0,0,0,0,0,0,0,0,0,0,0,-0.9999,-0.9999,0,-0.9999,-0.9999,-0.9999,-1.0009,-1.0009,-1.0009,-1.001,-1.0009,-1.0009,-1.0009,0,0,0,0,0,0,0,0,0,0,0,0,0,-1.001,-1.0009,-0.9999,-0.9999,-0.9999,-0.9999,-0.9999,-0.9999,-1.0009,-1.0009,-1.0009,-1.001,-1.0009,-1.0009,-1.0009,0,0,0,0,0,0,0,0,0,0,0,0,0,-1.0007,-1.0009,-0.9999,-1.0004,-1.0005,-0.9999,-0.9999,-0.9999,-1.0009,-1.0009,-1.001,-1.001,-1.0009,-1.0009,-1.0008,-0.9998,0,0,-1.0007,-1.0007,0,0,0,0,0,0,0,0,-1.0007,-1.0006,-1.0003,-1.0004,-1.0004,-1.0004,-1.0002,-0.9998,-1.0009,-1.0007,-1.001,-1.001,-1.0007,-1.0007,-1.0006,-0.9998,-0.9998,-1.0007,-1.0007,-1.0007,-1.0007,0,0,0,0,0,0,0,-1.0007,-1.0006,-0.9999,-1.0003,-1.0004,-1.0007,-1.0007,-1.0001,-1.0005,-1.0007,-1.0008,-1.0008,-1.0007,-1.0006,-1.0006,-0.9998,-1.0007,-1.0007,-1.0007,-1.0006,-0.9981,-0.9981,0,0,0,0,0,0,-1.0006,-1.0006,-0.9999,-0.9999,-1.0007,-1.0006,-1.0006,-1.0004,-1.0005,-1.0005,-1.0008,-1.0008,-1.0007,-1.0006,-1.0006,-0.9994,-1.0007,-1.0006,-1.0006,-0.9982,-0.9981,-0.9981,0,0,0,0,0,0,-1.0007,-1.0006,-0.9999,-1.0003,-1.0002,-1.0006,-1.0003,-1.0004,-1.0002,-1.0005,-1.0006,-1.0006,-1.0007,-1.0007,-1.0,-0.9994,-1.0006,-1.0006,-0.9982,-0.9981,-0.9981,-0.9969,0,0,0,0,0,0,-1.0007,-1.0006,-1.0001,-1.0003,-1.0002,-0.9993,-1.0002,-1.0003,-1.0002,-1.0003,-1.0004,-1.0004,-1.0007,-1.0,-0.9999,-0.9993,-1.0006,-0.9983,-0.9982,-0.9981,-0.997,-0.9968,-0.9966,0,0,0,0,0,-1.0007,-0.9998,-1.0001,-1.0,-0.9997,-0.9992,-0.9992,-0.9996,-1.0001,-0.9997,-0.9999,-1.0004,-0.9995,-1.0,-0.9999,-0.9992,-0.9983,-0.9982,-0.9981,-0.997,-0.9968,-0.9966,0,0,0,0,0,0,-0.9996,-0.9998,-1.0002,-0.9993,-0.9992,-0.9994,-0.9989,-0.9993,-0.9991,-0.9992,-0.9998,-0.9998,-0.999,-0.9991,-0.9996,-0.9982,-0.999,-0.9989,-0.9982,-0.998,-0.9978,-0.9978,-1.0005,0,0,0,0,0,-0.9992,-0.9988,-0.9991,-0.9982,-0.9982,-0.9985,-0.9984,-0.9987,-0.9987,-0.9986,-0.9988,-0.9987,-0.9984,-0.9982,-0.998,-0.997,-0.997,-0.9965,-0.9964,-0.9962,-0.9961,-0.9956,-0.9954,-0.9977,-0.9978,-0.9978,0,0,-0.9984,-0.9985,-0.9982,-0.998,-0.998,-0.9976,-0.9985,-0.998,-0.9977,-0.9986,-0.9979,-0.998,-0.998,-0.9972,-0.9969,-0.9972,-0.9955,-0.9961,-0.996,-0.9959,-0.9955,-0.9953,-0.9951,-0.9977,-0.9977,-0.9977,0,0,-0.9968,-0.9969,-0.9962,-0.9962,-0.9962,-0.9965,-0.9963,-0.9964,-0.9965,-0.9959,-0.9965,-0.9962,-0.9957,-0.9957,-0.9956,-0.9941,-0.9946,-0.994,-0.993,-0.9926,-0.9924,-0.9922,-0.9917,-0.9915,-0.9939,-0.9939,-0.9939,0,-0.9959,-0.9953,-0.9958,-0.9953,-0.9951,-0.9959,-0.9953,-0.9952,-0.9952,-0.9951,-0.9955,-0.9949,-0.995,-0.9942,-0.9938,-0.9937,-0.9936,-0.994,-0.9924,-0.9922,-0.9921,-0.9915,-0.9913,-0.9938,-0.9938,-0.9938,-0.9938,0,-0.9941,-0.9937,-0.9931,-0.9931,-0.9929,-0.9923,-0.9927,-0.9925,-0.9929,-0.9931,-0.9925,-0.9926,-0.9924,-0.9923,-0.9926,-0.9915,-0.9918,-0.9923,-0.993,-0.9918,-0.9913,-0.9911,-0.9937,-0.9937,-0.9938,-0.9938,0,0,-0.9916,-0.9919,-0.9917,-0.9917,-0.9918,-0.9915,-0.991,-0.9908,-0.9906,-0.9906,-0.9901,-0.9897,-0.9902,-0.9901,-0.9905,-0.9901,-0.9889,-0.9907,-0.9907,-0.9903,-0.9877,-0.9873,-0.9871,-0.9893,-0.9892,-0.9892,-0.9877,0,-0.9901,-0.9892,-0.9897,-0.9887,-0.9883,-0.9891,-0.9887,-0.9887,-0.9889,-0.9887,-0.9889,-0.9886,-0.9893,-0.9893,-0.9889,-0.9891,-0.9884,-0.9892,-0.9888,-0.9888,-0.9888,-0.9868,-0.9863,-0.9849,-0.9875,-0.9875,-0.9875,0,-0.9881,-0.988,-0.987,-0.9872,-0.9871,-0.9867,-0.9866,-0.9863,-0.9864,-0.9866,-0.9865,-0.987,-0.9865,-0.9874,-0.9867,-0.9873,-0.9872,-0.9873,-0.9872,-0.9872,-0.988,-0.9866,-0.9845,-0.9843,-0.9872,-0.9872,-0.9872,0,-0.9864,-0.986,-0.9854,-0.9853,-0.9856,-0.9853,-0.9854,-0.9855,-0.9854,-0.9853,-0.9852,-0.9851,-0.985,-0.9849,-0.9854,-0.9859,-0.9847,-0.9855,-0.9848,-0.9848,-0.9845,-0.9845,-0.9822,-0.9845,-0.9845,-0.9845,-0.9845,0,-0.9845,-0.9839,-0.9846,-0.9842,-0.9835,-0.9841,-0.9834,-0.9836,-0.9837,-0.9834,-0.9841,-0.9838,-0.9844,-0.9842,-0.9845,-0.984,-0.9839,-0.9841,-0.9842,-0.984,-0.9839,-0.9839,-0.9839,-0.9844,-0.9844,-0.9844,-0.9845,0,-0.9825,-0.9829,-0.9823,-0.9826,-0.9827,-0.9822,-0.9825,-0.9821,-0.9824,-0.982,-0.9819,-0.9824,-0.9822,-0.9826,-0.9824,-0.9827,-0.9819,-0.9821,-0.9818,-0.9819,-0.9811,-0.9812,-0.9787,-0.9784,-0.9809,-0.9809,-0.9808,0,-0.9812,-0.9808,-0.9811,-0.9809,-0.981,-0.9807,-0.9806,-0.9812,-0.9811,-0.9812,-0.9808,-0.9806,-0.9805,-0.9801,-0.9804,-0.9802,-0.9805,-0.9796,-0.9805,-0.9803,-0.9804,-0.9804,-0.9804,-0.9794,-0.9794,-0.9794,-0.9794,0,-0.979,-0.9793,-0.9791,-0.979,-0.9789,-0.9788,-0.9788,-0.9787,-0.9793,-0.9791,-0.9789,-0.9788,-0.9786,-0.9784,-0.9784,-0.9785,-0.979,-0.9791,-0.9789,-0.9787,-0.9786,-0.9786,-0.9813,-0.9792,-0.9792,-0.9792,-0.9792,-0.9792,-0.9773,-0.9769,-0.9771,-0.9769,-0.977,-0.977,-0.9767,-0.977,-0.9768,-0.9767,-0.9771,-0.9768,-0.9769,-0.9769,-0.977,-0.9768,-0.9771,-0.9769,-0.9768,-0.9767,-0.9766,-0.9786,-0.9768,-0.9768,-0.9768,-0.9768,-0.9768,0,-0.9751,-0.9753,-0.9751,-0.9751,-0.9749,-0.9755,-0.9756,-0.9754,-0.9751,-0.9752,-0.9751,-0.9748,-0.9747,-0.975,-0.9749,-0.9746,-0.9749,-0.9746,-0.9746,-0.9746,-0.9763,-0.9764,-0.9744,-0.9744,-0.9744,-0.9744,-0.9744,-0.9744,-0.9739,-0.9733,-0.9736,-0.9731,-0.9733,-0.973,-0.973,-0.973,-0.9731,-0.9728,-0.9727,-0.9729,-0.9731,-0.973,-0.9729,-0.973,-0.9729,-0.9725,-0.9727,-0.9743,-0.9745,-0.9747,-0.9749,-0.9725,-0.9725,-0.9711,-0.9711,-0.971]},{"header":{"parameterUnit":"m.s-1","parameterCategory":1,"la1":30.2991,"la2":30.254,"lo1":-89.0895,"lo2":-89.0444,"dy":0.0017,"dx":0.0017,"nx":28,"ny":28,"refTime":"2024-04-16T09:00:00:Z","depth":0,"parameterNumber":3,"parameterNumberName":"V-component_of_WINDS"},"data":[0,0,0,0,0,0,0,0,0,0,0,0,0,0,0,0,0,0,0,0,0,0,0,0,0,0,0,0,0,0,0,0,0,0,0,0,0,0,0,0,0,0,0,0,0,0,0,0,0,0,0,0,0,0,0,0,0,0,2.9561,2.9562,0,2.9621,2.9621,2.9622,2.9586,2.9585,2.9583,2.9581,2.964,2.9643,2.9646,0,0,0,0,0,0,0,0,0,0,0,0,0,2.9414,2.9417,2.9561,2.9562,2.9562,2.9621,2.9621,2.9622,2.9587,2.9585,2.9583,2.9581,2.9639,2.9643,2.9647,0,0,0,0,0,0,0,0,0,0,0,0,0,2.9476,2.9418,2.9561,2.9552,2.9551,2.962,2.9621,2.9622,2.9587,2.9585,2.9582,2.958,2.9638,2.9643,2.9647,2.9728,0,0,2.9662,2.9664,0,0,0,0,0,0,0,0,2.9472,2.9481,2.9552,2.9552,2.9552,2.9594,2.9591,2.9658,2.9588,2.9574,2.9581,2.9578,2.9627,2.9632,2.9649,2.973,2.9733,2.9662,2.9665,2.9667,2.9668,0,0,0,0,0,0,0,2.9468,2.9479,2.9584,2.9553,2.9553,2.9544,2.955,2.9603,2.9614,2.9575,2.9572,2.958,2.9626,2.9644,2.965,2.9734,2.9662,2.9666,2.9669,2.9671,2.9885,2.9888,0,0,0,0,0,0,2.9465,2.9475,2.9582,2.9586,2.9505,2.9549,2.9555,2.9583,2.9613,2.9615,2.9582,2.9578,2.9638,2.9644,2.9652,2.9749,2.9667,2.9671,2.9674,2.9882,2.9886,2.9889,0,0,0,0,0,0,2.9462,2.9475,2.958,2.953,2.9543,2.9554,2.9585,2.9585,2.9604,2.9619,2.962,2.9599,2.9636,2.9645,2.9709,2.975,2.9673,2.9678,2.9879,2.9883,2.9887,2.9943,0,0,0,0,0,0,2.9458,2.9474,2.9505,2.9531,2.9546,2.9637,2.9588,2.9588,2.9612,2.9608,2.9635,2.9637,2.9634,2.9703,2.9714,2.9755,2.9681,2.9875,2.9881,2.9886,2.9937,2.9948,2.9958,0,0,0,0,0,2.9453,2.9518,2.9507,2.952,2.9585,2.964,2.9648,2.9645,2.9616,2.9647,2.9656,2.9636,2.9744,2.9709,2.9722,2.9765,2.9873,2.9879,2.9885,2.9933,2.9946,2.9957,0,0,0,0,0,0,2.9495,2.9521,2.9509,2.9585,2.961,2.9634,2.9673,2.9659,2.9693,2.9687,2.968,2.9687,2.9754,2.9766,2.9727,2.9845,2.9804,2.9813,2.9835,2.9848,2.9858,2.9854,2.9685,0,0,0,0,0,2.9513,2.9556,2.9576,2.9641,2.9654,2.9662,2.9685,2.9681,2.9707,2.9717,2.9731,2.9757,2.9797,2.9823,2.986,2.9939,2.9944,2.9975,2.9985,2.9993,3.0001,3.0045,3.0058,2.991,2.991,2.9909,0,0,2.9551,2.957,2.9598,2.965,2.9669,2.9714,2.9671,2.9719,2.9752,2.9724,2.9786,2.9798,2.9826,2.9898,2.993,2.991,3.0044,3.0001,3.0008,3.0012,3.0053,3.0067,3.0079,2.9914,2.9913,2.9913,0,0,2.9643,2.9662,2.9718,2.9739,2.9769,2.9774,2.9787,2.9813,2.982,2.9882,2.9862,2.9901,2.9969,2.999,3.001,3.0111,3.0093,3.0123,3.0176,3.0219,3.023,3.0241,3.0277,3.029,3.0131,3.0131,3.0131,0,2.9686,2.9753,2.9748,2.9799,2.9823,2.98,2.9857,2.9877,2.9918,2.9934,2.9911,2.9997,3.0014,3.0091,3.0116,3.0132,3.0148,3.012,3.0229,3.0239,3.0249,3.0284,3.0298,3.0134,3.0134,3.0134,3.0133,0,2.9804,2.9851,2.9892,2.9934,2.9962,3.0015,3.0019,3.0048,3.0041,3.0047,3.0111,3.0131,3.0173,3.019,3.0183,3.0267,3.0253,3.023,3.0188,3.0267,3.0299,3.0313,3.0139,3.0138,3.0137,3.0136,0,0,2.9924,2.9963,2.9979,2.9997,3.003,3.0065,3.0118,3.0159,3.0184,3.0213,3.0257,3.0315,3.0294,3.0317,3.0312,3.0349,3.0428,3.0321,3.0321,3.0341,3.0522,3.054,3.0556,3.0417,3.0419,3.0421,3.052,0,3.0018,3.0111,3.0109,3.0195,3.0238,3.0218,3.0264,3.0288,3.0296,3.0333,3.0341,3.0384,3.0352,3.0365,3.0401,3.0411,3.0465,3.0404,3.0458,3.046,3.0452,3.0573,3.0592,3.0684,3.0533,3.0535,3.0536,0,3.0141,3.0175,3.0266,3.0293,3.031,3.0352,3.039,3.0426,3.0453,3.0456,3.0482,3.0472,3.0524,3.0481,3.0554,3.0513,3.0535,3.0543,3.0546,3.0552,3.0503,3.0582,3.0713,3.0727,3.0556,3.0555,3.0553,0,3.022,3.0289,3.0352,3.0369,3.0401,3.0431,3.0445,3.047,3.0496,3.0529,3.0545,3.0584,3.0605,3.0635,3.0635,3.0603,3.0709,3.0665,3.0713,3.0714,3.0737,3.0735,3.0874,3.075,3.075,3.0749,3.0749,0,3.0326,3.0383,3.0388,3.0427,3.049,3.0487,3.0549,3.056,3.0583,3.0624,3.0608,3.0646,3.0644,3.0683,3.0683,3.0744,3.0753,3.0757,3.0757,3.0759,3.0759,3.0774,3.0768,3.0753,3.0752,3.0752,3.0751,0,3.0426,3.0432,3.05,3.0525,3.0533,3.0578,3.06,3.0636,3.0643,3.0695,3.0707,3.0717,3.0762,3.0765,3.0817,3.0817,3.0891,3.0883,3.0882,3.0881,3.0929,3.0925,3.1083,3.1104,3.0965,3.0967,3.0968,0,3.0493,3.0536,3.0567,3.0594,3.061,3.0653,3.0679,3.0678,3.0706,3.0741,3.0773,3.0817,3.0852,3.0925,3.0936,3.0976,3.097,3.1022,3.0975,3.0977,3.0971,3.0969,3.0974,3.1031,3.1033,3.1034,3.1035,0,3.0613,3.0614,3.0653,3.0693,3.0725,3.0756,3.0785,3.0807,3.081,3.0841,3.0888,3.0915,3.0969,3.1012,3.1051,3.1066,3.1051,3.105,3.1063,3.1066,3.1065,3.1067,3.0908,3.1046,3.1045,3.1044,3.1044,3.1043,3.0699,3.0737,3.0765,3.0808,3.083,3.0858,3.0894,3.0906,3.0945,3.0989,3.0985,3.1037,3.1064,3.1115,3.1132,3.1172,3.1154,3.1174,3.1179,3.1184,3.1189,3.1058,3.1179,3.1179,3.1179,3.1178,3.1178,0,3.0819,3.0836,3.0876,3.0918,3.0952,3.0936,3.0968,3.0998,3.1043,3.107,3.1105,3.1158,3.1201,3.1216,3.1258,3.1287,3.1282,3.1298,3.1296,3.13,3.1202,3.1187,3.1302,3.1302,3.1302,3.1302,3.1302,3.1302,3.0885,3.0948,3.0953,3.1027,3.1043,3.1094,3.1114,3.1139,3.116,3.1221,3.1257,3.1267,3.1289,3.1332,3.1371,3.1374,3.139,3.141,3.1411,3.1319,3.1307,3.1295,3.1281,3.1413,3.1413,3.1505,3.1506,3.1507]}]]